RAPIDEYE 5 (33313 NORAD) Tracking and Keplerian Element Data

This shows tracking and keplerian element data for the satellite.

Feedback or suggestion? Click here.




ElementValue
Catalog33313
NameRAPIDEYE 5
Epoch Orbit65058
Epoch Day255.6322953
Epoch Year2020
RAAN317.6035
Inclination97.6831
Eccentricity0.0014073
Argument of Perigee333.5522
Mean Anonmoly26.4978
Mean Motion14.94403499
Decay Rate-1.87E-06
L11 33313U 08040B 20255.63229530 -.00000187 00000-0 -12054-4 0 9993
L22 33313 97.6831 317.6035 0014073 333.5522 26.4978 14.94403499650589



Live tracking and technical data element details for RAPIDEYE 5 (NORAD 33313). RAPIDEYE 5 can be tracked NOW for your location showing map with azimuth and elevation plus other details from your city location.







IsCatalogInMostPopularTable: catalog: 33313, numindb: 316
Update: records affected: 1



GetName: 33313 RAPIDEYE 5

Hit Count: updated at: Thu, 22 May 2025 04:36:17 GMT